Flag for United Kingdom Weather past 2 weeks in Londonderry, Northern Ireland, United Kingdom

Now
59 °F

Scattered clouds.


Feels Like: 56 °F
Forecast: 48 / 65 °F
Wind: 14 mph from North

Location: Eglinton / Londonderry

Current Time: Sep 20, 2014 at 11:39:19 AM

Latest Report: Sep 20, 2014 at 10:50 AM


Visibility: N/A

Pressure: 30.18 "Hg

Humidity: 82%

Dew point: 54 °F

Location of LondonderryLocation

Historic Weather in Londonderry — Graph

°F

Londonderry temperature yesterday

Maximum temperature yesterday: 64 °F (at 10:20 AM)
Minimum temperature yesterday: 59 °F (at 11:20 PM)
Average temperature yesterday: 63 °F

Past Weeks' High & Low Weather Summary

 TemperatureHumidityPressure
High72 °F (Sep 12, 1:50 PM)100% (Sep 5, 10:20 AM)30.36 "Hg (Sep 5, 10:20 AM)
Low45 °F (Sep 11, 7:50 AM)49% (Sep 9, 3:50 PM)29.86 "Hg (Sep 18, 3:20 PM)
Average61 °F80%30.12 "Hg
* Reported Sep 5 10:20 AM — Sep 20 10:20 AM, Londonderry, Weather by CustomWeather, © 2014

Note: Actual official high and low records may vary slightly from our data, if they occured in-between our weather recording intervals... More about our weather records

Advertising

Londonderry weather history for previous 24 hours

 ConditionsComfort  
Time TempWeatherWind HumidityBarometerVisibility
10:20 AM
Sep 20
59 °FScattered clouds.15 mph82%30.15 "HgN/A
9:50 AM59 °FBroken clouds.14 mph88%30.15 "HgN/A
9:20 AM59 °FScattered clouds.9 mph82%30.15 "HgN/A
8:50 AM57 °FScattered clouds.6 mph88%30.15 "HgN/A
8:20 AM55 °FScattered clouds.7 mph88%30.12 "HgN/A
7:50 AM55 °FPassing clouds.8 mph88%30.12 "HgN/A
7:20 AM55 °FPassing clouds.9 mph88%30.12 "HgN/A
6:50 AM57 °FPassing clouds.14 mph88%30.09 "HgN/A
6:20 AM59 °FPartly cloudy.9 mph82%30.09 "HgN/A
5:50 AM59 °FMostly cloudy.6 mph82%30.09 "HgN/A
11:20 PM
Sep 19
59 °FPassing clouds.9 mph94%30.04 "Hg4 mi
10:50 PM61 °FPassing clouds.10 mph88%30.04 "Hg4 mi
8:50 PM61 °FFog.13 mph94%30.01 "Hg2 mi
6:50 PM63 °FPartly sunny.10 mph88%29.98 "Hg2 mi
6:20 PM63 °FFog.8 mph94%29.98 "Hg2 mi
5:50 PM63 °FFog.3 mph94%29.95 "Hg2 mi
5:20 PM64 °FBroken clouds.3 mph88%29.95 "Hg2 mi
4:50 PM64 °FBroken clouds.3 mph88%29.95 "Hg2 mi
4:20 PM64 °FOvercast.3 mph88%29.95 "Hg3 mi
3:50 PM63 °FOvercast.3 mph88%29.95 "Hg2 mi
3:20 PM63 °FDrizzle. Overcast.3 mph88%29.95 "Hg2 mi
2:50 PM64 °FOvercast.6 mph88%29.95 "Hg2 mi
2:20 PM63 °FPartly sunny.6 mph88%29.95 "Hg2 mi
1:50 PM64 °FPartly sunny.7 mph83%29.95 "Hg2 mi
1:20 PM64 °FPartly sunny.6 mph83%29.95 "Hg3 mi
12:50 PM63 °FPartly sunny.7 mph88%29.95 "Hg3 mi
12:20 PM64 °FOvercast.6 mph83%29.92 "Hg3 mi
11:50 AM64 °FOvercast.6 mph88%29.92 "Hg3 mi
11:20 AM64 °FPartly sunny.6 mph88%29.92 "Hg3 mi
Weather by CustomWeather, © 2014

See weather overviewHow to use our weather pages